Regional Weather Roundup
Issued by NWS

Home | Current Version | Previous Version | Graphics & Text | Print | Product List | Glossary On
Versions: 1 2 3 4 5 6 7 8 9 10 11 12 13 14 15 16 17 18 19 20 21 22 23 24 25 26 27 28 29 30 31 32 33 34 35 36 37 38 39 40 41 42 43 44 45 46 47 48 49 50
000
ASUS43 KTOP 280308
RWRKS

WEATHER ROUNDUP FOR KANSAS
NATIONAL WEATHER SERVICE GOODLAND KS
1000 PM CDT TUE SEP 27 2016

NOTE:  "FAIR" INDICATES FEW OR NO CLOUDS BELOW 12,000 FEET WITH NO
SIGNIFICANT WEATHER AND/OR OBSTRUCTIONS TO VISIBILITY.

KSZ001>006-013>018-027>032-041>047-280400-
NORTHWEST KANSAS

CITY           SKY/WX    TMP DP  RH WIND       PRES   REMARKS
GOODLAND       CLEAR     52  42  69 N3        30.06R
HAYS           CLEAR     66  45  45 CALM      29.96R
HILL CITY      CLEAR     56  51  84 W3        29.97R
RUSSELL        CLEAR     62  53  72 S8        29.93R
$$

KSZ061>065-074>080-084>089-280400-
SOUTHWEST KANSAS

CITY           SKY/WX    TMP DP  RH WIND       PRES   REMARKS
DODGE CITY     CLEAR     66  41  40 SW5       30.00R
ELKHART          N/A     73  38  28 SW8         N/A
GARDEN CITY    CLEAR     68  38  33 SW3       30.02R
GREAT BEND     CLEAR     64  48  55 CALM      29.95S
LIBERAL        CLEAR     64  37  36 SW9       30.05S
PRATT          CLEAR     61  49  65 SW6       29.97S
$$

KSZ066>073-081>083-090>101-280400-
SOUTHEAST KANSAS

CITY           SKY/WX    TMP DP  RH WIND       PRES   REMARKS
CHANUTE        CLEAR     63  56  78 SW8       29.92S
COFFEYVILLE    CLEAR     65  52  62 S5        29.94R
HUTCHINSON     CLEAR     61  57  87 CALM      29.94S
MEDICINE LODGE   N/A     70  51  51 SE8       29.95S
NEWTON         CLEAR     66  57  72 SW5       29.95S
PARSONS        CLEAR     57  55  93 CALM      29.94S
WICHITA INTL   CLEAR     64  56  75 S6        29.93S
WICHITA JABRA  CLEAR     67  55  65 SW8       29.94R
WICHITA MCCONL CLEAR     64  55  75 SW8       29.94R
WINFIELD       CLEAR     64  54  69 S7        29.96R
$$

KSZ007>012-019>026-033>040-048>060-102>105-280400-
NORTHEAST KANSAS

CITY           SKY/WX    TMP DP  RH WIND       PRES   REMARKS
CONCORDIA      CLEAR     66  51  58 SW10      29.89S
EMPORIA        CLEAR     64  56  75 W5        29.92S
LAWRENCE       CLEAR     57  56  96 CALM      29.88S
MANHATTAN      CLEAR     59  56  89 CALM      29.89S
MARYSVILLE     CLEAR     59  52  77 CALM      29.88S
OLATHE IND     CLEAR     64  56  75 S3        29.90S
OLATHE EXE     CLEAR     64  55  72 CALM      29.89S
SALINA         CLEAR     64  55  72 S10       29.92S
TOPEKA BILLARD CLEAR     62  57  83 CALM      29.88S
TOPEKA FORBES  CLEAR     65  55  70 SW8       29.89S
$$




USA.gov is the U.S. government's official web portal to all federal, state and local government web resources and services.